Regional Weather Roundup
Issued by NWS

Home | Current Version | Previous Version | Text Only | Print | Product List | Glossary Off
Versions: 1 2 3 4 5 6 7 8 9 10 11 12 13 14 15 16 17 18 19 20 21 22 23 24 25 26 27 28 29 30 31 32 33 34 35 36 37 38 39 40 41 42 43 44 45 46 47 48 49 50

000
ASUS43 KIND 291959
RWRIN

WEATHER ROUNDUP FOR INDIANA
NATIONAL WEATHER SERVICE INDIANAPOLIS IN
400 PM EDT MON AUG 29 2016

NOTE: "FAIR" INDICATES FEW OR NO CLOUDS BELOW 12,000 FEET WITH NO
SIGNIFICANT WEATHER AND/OR OBSTRUCTIONS TO VISIBILITY.

* - STATION DOES NOT REPORT WEATHER SUCH AS PRECIPITATION OR FOG.

+ - STATION NOT QUALITY CONTROLLED BY THE NATIONAL WEATHER SERVICE.
    USE DATA WITH CAUTION...ESPECIALLY DEWPOINT AND RELATIVE
    HUMIDITY OBSERVATIONS.

INZ001>003-010>013-019-020-292100-
NORTHWEST INDIANA

CITY           SKY/WX    TMP DP  RH WIND       PRES   REMARKS
GARY /AIRPORT/ PTSUNNY   84  73  70 NE8       30.20F
KNOX *+        MOSUNNY   86  43  22 E3        30.21F
MONTICELLO +   MOSUNNY   85  68  57 SE3       30.20F

$$

LMZ046-743>745-292100-
SOUTHERN LAKE MICHIGAN

STATION/POSITION TIME  TEMP    WIND        PRES    WAVE
                       AIR SEA DIR/SP/G            HT
                 (UTC) (F)     (DEG/KT/KT) (MB)    (FT)
BURNS HARBOR     1900   78      20/ 10/ 11 1023.7F
MICHIGAN CITY    1910   77     360/  8/  9   N/A
5NW MICH CITY    1900   79 78   10/  6/  6   N/A     1

$$

INZ004-005-014>016-021>024-292100-
NORTH CENTRAL INDIANA

CITY           SKY/WX    TMP DP  RH WIND       PRES   REMARKS
GOSHEN         MOSUNNY   86  69  56 S3        30.22F
SOUTH BEND     HVY RAIN  78  72  81 NE10      30.22F

$$

INZ006>009-017-018-025>027-292100-
NORTHEAST INDIANA

CITY           SKY/WX    TMP DP  RH WIND       PRES   REMARKS
ANGOLA *+      MOSUNNY   84  70  61 CALM      30.23F
FORT WAYNE     MOSUNNY   85  67  54 E3        30.23F

$$

INZ028-029-035-036-043>045-051>053-292100-
WEST CENTRAL INDIANA

CITY           SKY/WX    TMP DP  RH WIND       PRES   REMARKS
CRAWFORDSVL +  SUNNY     85  71  62 CALM      30.20F
LAFAYETTE      LGT RAIN  83  74  74 E10       30.18F
TERRE HAUTE    SUNNY     91  68  46 CALM      30.18F HX  95

$$

INZ030>032-037>040-046>048-054>057-064-065-292100-
CENTRAL INDIANA

CITY           SKY/WX    TMP DP  RH WIND       PRES   REMARKS
ANDERSON       MOSUNNY   86  70  58 CALM      30.21
COLUMBUS       PTSUNNY   88  73  62 SE5       30.19F HX  96
INDIANAPOLIS   MOSUNNY   88  67  49 SE3       30.18F
-EAGLE CREEK   SUNNY     89  66  46 MISG      30.19F
KOKOMO *+      CLOUDY    86  72  62 E8        30.20F
MT COMFORT *+  SUNNY     86  72  62 E3        30.21F
SHELBYVILLE    MOSUNNY   92  72  51 N3        30.18F HX  99

$$

INZ033-034-041-042-049-050-058-059-292100-
EAST CENTRAL INDIANA

CITY           SKY/WX    TMP DP  RH WIND       PRES   REMARKS
MUNCIE         MOSUNNY   86  72  62 E7        30.21F

$$

INZ060-061-067>069-081>083-085>088-292100-
SOUTHWEST INDIANA

CITY           SKY/WX    TMP DP  RH WIND       PRES   REMARKS
EVANSVILLE     MOSUNNY   93  70  46 NE7       30.15F HX  99
HUNTINGBURG *+ SUNNY     91  72  52 N7        30.15F HX  98

$$

INZ062-063-066-070>080-084-089>092-292100-
SOUTH CENTRAL AND SOUTHEAST INDIANA

CITY           SKY/WX    TMP DP  RH WIND       PRES   REMARKS
BLOOMINGTON    SUNNY     90  69  50 N3        30.18F
MADISON *+     MOSUNNY   90  68  48 NE5       30.19F

$$





USA.gov is the U.S. government's official web portal to all federal, state and local government web resources and services.